Year,Month,Day,Hour,Minute,Value (Times are PST for temperature in C)
2019,10,01,00,00,5.50
2019,10,01,00,01,5.50
2019,10,01,00,02,5.50
2019,10,01,00,03,5.60
2019,10,01,00,04,5.60
2019,10,01,00,05,5.60
2019,10,01,00,06,5.60
2019,10,01,00,07,5.60
2019,10,01,00,08,5.60
2019,10,01,00,09,5.50
2019,10,01,00,10,5.50
2019,10,01,00,11,5.50
2019,10,01,00,12,5.50
2019,10,01,00,13,5.50
2019,10,01,00,14,5.50
2019,10,01,00,15,5.50
2019,10,01,00,16,5.50
2019,10,01,00,17,5.50
2019,10,01,00,18,5.40
2019,10,01,00,19,5.40
2019,10,01,00,20,5.40
2019,10,01,00,21,5.40
2019,10,01,00,22,5.40
2019,10,01,00,23,5.40
2019,10,01,00,24,5.40
2019,10,01,00,25,5.30
2019,10,01,00,26,5.30
2019,10,01,00,27,5.30
2019,10,01,00,28,5.30
2019,10,01,00,29,5.30
2019,10,01,00,30,5.30
2019,10,01,00,31,5.30
2019,10,01,00,32,5.30
2019,10,01,00,33,5.30
2019,10,01,00,34,5.30
2019,10,01,00,35,5.30
2019,10,01,00,36,5.30
2019,10,01,00,37,5.30
2019,10,01,00,38,5.30
2019,10,01,00,39,5.30
2019,10,01,00,40,5.30
2019,10,01,00,41,5.30
2019,10,01,00,42,5.30
2019,10,01,00,43,5.20
2019,10,01,00,44,5.20
2019,10,01,00,45,5.20
2019,10,01,00,46,5.20
2019,10,01,00,47,5.20
2019,10,01,00,48,5.10
2019,10,01,00,49,5.10
2019,10,01,00,50,5.10
2019,10,01,00,51,5.10
2019,10,01,00,52,5.10
2019,10,01,00,53,5.00
2019,10,01,00,54,5.00
2019,10,01,00,55,5.00
2019,10,01,00,56,5.00
2019,10,01,00,57,5.00
2019,10,01,00,58,5.00
2019,10,01,00,59,5.00
2019,10,01,01,00,5.00
2019,10,01,01,01,5.00
2019,10,01,01,02,5.00
2019,10,01,01,03,5.00
2019,10,01,01,04,5.00
2019,10,01,01,05,5.10
2019,10,01,01,06,5.10
2019,10,01,01,07,5.10
2019,10,01,01,08,5.10
2019,10,01,01,09,5.00
2019,10,01,01,10,5.00
2019,10,01,01,11,5.00
2019,10,01,01,12,5.00
2019,10,01,01,13,5.00
2019,10,01,01,14,5.00
2019,10,01,01,15,4.90
2019,10,01,01,16,4.90
2019,10,01,01,17,4.90
2019,10,01,01,18,4.90
2019,10,01,01,19,4.80
2019,10,01,01,20,4.80
2019,10,01,01,21,4.80
2019,10,01,01,22,4.80
2019,10,01,01,23,4.80
2019,10,01,01,24,4.80
2019,10,01,01,25,4.80
2019,10,01,01,26,4.80
2019,10,01,01,27,4.80
2019,10,01,01,28,4.80
2019,10,01,01,29,4.80
2019,10,01,01,30,4.80
2019,10,01,01,31,4.80
2019,10,01,01,32,4.80
2019,10,01,01,33,4.80
2019,10,01,01,34,4.80
2019,10,01,01,35,4.80
2019,10,01,01,36,4.80
2019,10,01,01,37,4.80
2019,10,01,01,38,4.70
2019,10,01,01,39,4.70
2019,10,01,01,40,4.70
2019,10,01,01,41,4.70
2019,10,01,01,42,4.70
2019,10,01,01,43,4.70
2019,10,01,01,44,4.70
2019,10,01,01,45,4.70
2019,10,01,01,46,4.70
2019,10,01,01,47,4.70
2019,10,01,01,48,4.70
2019,10,01,01,49,4.70
2019,10,01,01,50,4.70
2019,10,01,01,51,4.70
2019,10,01,01,52,4.70
2019,10,01,01,53,4.70
2019,10,01,01,54,4.70
2019,10,01,01,55,4.70
2019,10,01,01,56,4.70
2019,10,01,01,57,4.60
2019,10,01,01,58,4.60
2019,10,01,01,59,4.60
2019,10,01,02,00,4.60
2019,10,01,02,01,4.60
2019,10,01,02,02,4.60
2019,10,01,02,03,4.60
2019,10,01,02,04,4.60
2019,10,01,02,05,4.60
2019,10,01,02,06,4.60
2019,10,01,02,07,4.50
2019,10,01,02,08,4.50
2019,10,01,02,09,4.50
2019,10,01,02,10,4.50
2019,10,01,02,11,4.40
2019,10,01,02,12,4.40
2019,10,01,02,13,4.40
2019,10,01,02,14,4.50
2019,10,01,02,15,4.50
2019,10,01,02,16,4.50
2019,10,01,02,17,4.50
2019,10,01,02,18,4.50
2019,10,01,02,19,4.50
2019,10,01,02,20,4.50
2019,10,01,02,21,4.50
2019,10,01,02,22,4.60
2019,10,01,02,23,4.60
2019,10,01,02,24,4.60
2019,10,01,02,25,4.60
2019,10,01,02,26,4.60
2019,10,01,02,27,4.60
2019,10,01,02,28,4.60
2019,10,01,02,29,4.60
2019,10,01,02,30,4.50
2019,10,01,02,31,4.50
2019,10,01,02,32,4.50
2019,10,01,02,33,4.50
2019,10,01,02,34,4.50
2019,10,01,02,35,4.50
2019,10,01,02,36,4.60
2019,10,01,02,37,4.60
2019,10,01,02,38,4.60
2019,10,01,02,39,4.60
2019,10,01,02,40,4.60
2019,10,01,02,41,4.60
2019,10,01,02,42,4.60
2019,10,01,02,43,4.60
2019,10,01,02,44,4.60
2019,10,01,02,45,4.60
2019,10,01,02,46,4.60
2019,10,01,02,47,4.60
2019,10,01,02,48,4.60
2019,10,01,02,49,4.60
2019,10,01,02,50,4.60
2019,10,01,02,51,4.50
2019,10,01,02,52,4.50
2019,10,01,02,53,4.50
2019,10,01,02,54,4.50
2019,10,01,02,55,4.40
2019,10,01,02,56,4.40
2019,10,01,02,57,4.40
2019,10,01,02,58,4.40
2019,10,01,02,59,4.40
2019,10,01,03,00,4.40
2019,10,01,03,01,4.40
2019,10,01,03,02,4.40
2019,10,01,03,03,4.40
2019,10,01,03,04,4.40
2019,10,01,03,05,4.40
2019,10,01,03,06,4.40
2019,10,01,03,07,4.40
2019,10,01,03,08,4.40
2019,10,01,03,09,4.40
2019,10,01,03,10,4.30
2019,10,01,03,11,4.30
2019,10,01,03,12,4.30
2019,10,01,03,13,4.30
2019,10,01,03,14,4.30
2019,10,01,03,15,4.20
2019,10,01,03,16,4.20
2019,10,01,03,17,4.20
2019,10,01,03,18,4.20
2019,10,01,03,19,4.20
2019,10,01,03,20,4.20
2019,10,01,03,21,4.20
2019,10,01,03,22,4.20
2019,10,01,03,23,4.20
2019,10,01,03,24,4.20
2019,10,01,03,25,4.20
2019,10,01,03,26,4.20
2019,10,01,03,27,4.10
2019,10,01,03,28,4.10
2019,10,01,03,29,4.10
2019,10,01,03,30,4.10
2019,10,01,03,31,4.10
2019,10,01,03,32,4.10
2019,10,01,03,33,4.10
2019,10,01,03,34,4.10
2019,10,01,03,35,4.10
2019,10,01,03,36,4.10
2019,10,01,03,37,4.20
2019,10,01,03,38,4.20
2019,10,01,03,39,4.20
2019,10,01,03,40,4.20
2019,10,01,03,41,4.20
2019,10,01,03,42,4.20
2019,10,01,03,43,4.20
2019,10,01,03,44,4.20
2019,10,01,03,45,4.20
2019,10,01,03,46,4.20
2019,10,01,03,47,4.20
2019,10,01,03,48,4.20
2019,10,01,03,49,4.20
2019,10,01,03,50,4.20
2019,10,01,03,51,4.10
2019,10,01,03,52,4.10
2019,10,01,03,53,4.10
2019,10,01,03,54,4.10
2019,10,01,03,55,4.10
2019,10,01,03,56,4.10
2019,10,01,03,57,4.10
2019,10,01,03,58,4.10
2019,10,01,03,59,4.10
2019,10,01,04,00,4.10
2019,10,01,04,01,4.00
2019,10,01,04,02,4.10
2019,10,01,04,03,4.10
2019,10,01,04,04,4.10
2019,10,01,04,05,4.10
2019,10,01,04,06,4.10
2019,10,01,04,07,4.10
2019,10,01,04,08,4.10
2019,10,01,04,09,4.10
2019,10,01,04,10,4.10
2019,10,01,04,11,4.10
2019,10,01,04,12,4.10
2019,10,01,04,13,4.10
2019,10,01,04,14,4.10
2019,10,01,04,15,4.00
2019,10,01,04,16,4.00
2019,10,01,04,17,4.00
2019,10,01,04,18,4.00
2019,10,01,04,19,4.00
2019,10,01,04,20,4.10
2019,10,01,04,21,4.10
2019,10,01,04,22,4.10
2019,10,01,04,23,4.10
2019,10,01,04,24,4.10
2019,10,01,04,25,4.10
2019,10,01,04,26,4.10
2019,10,01,04,27,4.10
2019,10,01,04,28,4.10
2019,10,01,04,29,4.10
2019,10,01,04,30,4.10
2019,10,01,04,31,4.00
2019,10,01,04,32,4.00
2019,10,01,04,33,4.00
2019,10,01,04,34,4.00
2019,10,01,04,35,4.00
2019,10,01,04,36,4.00
2019,10,01,04,37,4.00
2019,10,01,04,38,4.00
2019,10,01,04,39,4.00
2019,10,01,04,40,3.90
2019,10,01,04,41,3.90
2019,10,01,04,42,3.90
2019,10,01,04,43,3.90
2019,10,01,04,44,3.90
2019,10,01,04,45,4.00
2019,10,01,04,46,4.00
2019,10,01,04,47,4.10
2019,10,01,04,48,4.10
2019,10,01,04,49,4.10
2019,10,01,04,50,4.10
2019,10,01,04,51,4.10
2019,10,01,04,52,4.10
2019,10,01,04,53,4.10
2019,10,01,04,54,4.00
2019,10,01,04,55,4.00
2019,10,01,04,56,4.00
2019,10,01,04,57,4.00
2019,10,01,04,58,4.00
2019,10,01,04,59,3.90
2019,10,01,05,00,3.90
2019,10,01,05,01,3.90
2019,10,01,05,02,3.90
2019,10,01,05,03,3.90
2019,10,01,05,04,3.90
2019,10,01,05,05,3.90
2019,10,01,05,06,3.90
2019,10,01,05,07,3.90
2019,10,01,05,08,4.00
2019,10,01,05,09,4.00
2019,10,01,05,10,4.00
2019,10,01,05,11,4.10
2019,10,01,05,12,4.10
2019,10,01,05,13,4.10
2019,10,01,05,14,4.10
2019,10,01,05,15,4.10
2019,10,01,05,16,4.10
2019,10,01,05,17,4.00
2019,10,01,05,18,4.00
2019,10,01,05,19,4.00
2019,10,01,05,20,4.00
2019,10,01,05,21,4.00
2019,10,01,05,22,4.00
2019,10,01,05,23,4.00
2019,10,01,05,24,4.00
2019,10,01,05,25,4.00
2019,10,01,05,26,4.00
2019,10,01,05,27,4.00
2019,10,01,05,28,4.00
2019,10,01,05,29,4.00
2019,10,01,05,30,4.00
2019,10,01,05,31,4.10
2019,10,01,05,32,4.10
2019,10,01,05,33,4.10
2019,10,01,05,34,4.10
2019,10,01,05,35,4.10
2019,10,01,05,36,4.10
2019,10,01,05,37,4.00
2019,10,01,05,38,4.00
2019,10,01,05,39,4.00
2019,10,01,05,40,4.00
2019,10,01,05,41,4.00
2019,10,01,05,42,4.00
2019,10,01,05,43,4.00
2019,10,01,05,44,4.00
2019,10,01,05,45,4.00
2019,10,01,05,46,4.00
2019,10,01,05,47,4.00
2019,10,01,05,48,4.00
2019,10,01,05,49,4.00
2019,10,01,05,50,4.00
2019,10,01,05,51,4.00
2019,10,01,05,52,4.00
2019,10,01,05,53,4.00
2019,10,01,05,54,3.90
2019,10,01,05,55,3.90
2019,10,01,05,56,3.90
2019,10,01,05,57,3.90
2019,10,01,05,58,3.90
2019,10,01,05,59,3.90
2019,10,01,06,00,3.90
2019,10,01,06,01,3.90
2019,10,01,06,02,3.90
2019,10,01,06,03,3.90
2019,10,01,06,04,3.90
2019,10,01,06,05,3.90
2019,10,01,06,06,3.90
2019,10,01,06,07,3.90
2019,10,01,06,08,3.90
2019,10,01,06,09,3.90
2019,10,01,06,10,3.90
2019,10,01,06,11,3.90
2019,10,01,06,12,3.90
2019,10,01,06,13,3.90
2019,10,01,06,14,3.80
2019,10,01,06,15,3.80
2019,10,01,06,16,3.80
2019,10,01,06,17,3.80
2019,10,01,06,18,3.80
2019,10,01,06,19,3.80
2019,10,01,06,20,3.80
2019,10,01,06,21,3.80
2019,10,01,06,22,3.80
2019,10,01,06,23,3.80
2019,10,01,06,24,3.80
2019,10,01,06,25,3.80
2019,10,01,06,26,3.80
2019,10,01,06,27,3.80
2019,10,01,06,28,3.80
2019,10,01,06,29,3.70
2019,10,01,06,30,3.70
2019,10,01,06,31,3.70
2019,10,01,06,32,3.70
2019,10,01,06,33,3.70
2019,10,01,06,34,3.70
2019,10,01,06,35,3.70
2019,10,01,06,36,3.70
2019,10,01,06,37,3.70
2019,10,01,06,38,3.70
2019,10,01,06,39,3.70
2019,10,01,06,40,3.70
2019,10,01,06,41,3.70
2019,10,01,06,42,3.70
2019,10,01,06,43,3.70
2019,10,01,06,44,3.70
2019,10,01,06,45,3.70
2019,10,01,06,46,3.70
2019,10,01,06,47,3.70
2019,10,01,06,48,3.70
2019,10,01,06,49,3.70
2019,10,01,06,50,3.70
2019,10,01,06,51,3.70
2019,10,01,06,52,3.70
2019,10,01,06,53,3.70
2019,10,01,06,54,3.70
2019,10,01,06,55,3.70
2019,10,01,06,56,3.70
2019,10,01,06,57,3.70
2019,10,01,06,58,3.70
2019,10,01,06,59,3.70
2019,10,01,07,00,3.60
2019,10,01,07,01,3.60
2019,10,01,07,02,3.60
2019,10,01,07,03,3.60
2019,10,01,07,04,3.60
2019,10,01,07,05,3.60
2019,10,01,07,06,3.60
2019,10,01,07,07,3.60
2019,10,01,07,08,3.60
2019,10,01,07,09,3.60
2019,10,01,07,10,3.60
2019,10,01,07,11,3.60
2019,10,01,07,12,3.60
2019,10,01,07,13,3.60
2019,10,01,07,14,3.60
2019,10,01,07,15,3.60
2019,10,01,07,16,3.60
2019,10,01,07,17,3.50
2019,10,01,07,18,3.50
2019,10,01,07,19,3.50
2019,10,01,07,20,3.50
2019,10,01,07,21,3.50
2019,10,01,07,22,3.50
2019,10,01,07,23,3.60
2019,10,01,07,24,3.60
2019,10,01,07,25,3.60
2019,10,01,07,26,3.60
2019,10,01,07,27,3.60
2019,10,01,07,28,3.60
2019,10,01,07,29,3.60
2019,10,01,07,30,3.60
2019,10,01,07,31,3.60
2019,10,01,07,32,3.60
2019,10,01,07,33,3.60
2019,10,01,07,34,3.60
2019,10,01,07,35,3.60
2019,10,01,07,36,3.60
2019,10,01,07,37,3.60
2019,10,01,07,38,3.60
2019,10,01,07,39,3.60
2019,10,01,07,40,3.60
2019,10,01,07,41,3.50
2019,10,01,07,42,3.50
2019,10,01,07,43,3.50
2019,10,01,07,44,3.50
2019,10,01,07,45,3.60
2019,10,01,07,46,3.60
2019,10,01,07,47,3.60
2019,10,01,07,48,3.60
2019,10,01,07,49,3.70
2019,10,01,07,50,3.70
2019,10,01,07,51,3.70
2019,10,01,07,52,3.70
2019,10,01,07,53,3.70
2019,10,01,07,54,3.70
2019,10,01,07,55,3.70
2019,10,01,07,56,3.70
2019,10,01,07,57,3.70
2019,10,01,07,58,3.70
2019,10,01,07,59,3.70
2019,10,01,08,00,3.70
2019,10,01,08,01,3.70
2019,10,01,08,02,3.70
2019,10,01,08,03,3.70
2019,10,01,08,04,3.70
2019,10,01,08,05,3.70
2019,10,01,08,06,3.70
2019,10,01,08,07,3.70
2019,10,01,08,08,3.70
2019,10,01,08,09,3.80
2019,10,01,08,10,3.80
2019,10,01,08,11,3.80
2019,10,01,08,12,3.80
2019,10,01,08,13,3.80
2019,10,01,08,14,3.80
2019,10,01,08,15,3.80
2019,10,01,08,16,3.80
2019,10,01,08,17,3.90
2019,10,01,08,18,3.90
2019,10,01,08,19,3.90
2019,10,01,08,20,3.90
2019,10,01,08,21,3.90
2019,10,01,08,22,4.00
2019,10,01,08,23,4.00
2019,10,01,08,24,4.10
2019,10,01,08,25,4.10
2019,10,01,08,26,4.10
2019,10,01,08,27,4.10
2019,10,01,08,28,4.20
2019,10,01,08,29,4.20
2019,10,01,08,30,4.20
2019,10,01,08,31,4.20
2019,10,01,08,32,4.30
2019,10,01,08,33,4.30
2019,10,01,08,34,4.30
2019,10,01,08,35,4.30
2019,10,01,08,36,4.40
2019,10,01,08,37,4.40
2019,10,01,08,38,4.40
2019,10,01,08,39,4.40
2019,10,01,08,40,4.50
2019,10,01,08,41,4.50
2019,10,01,08,42,4.50
2019,10,01,08,43,4.50
2019,10,01,08,44,4.60
2019,10,01,08,45,4.60
2019,10,01,08,46,4.60
2019,10,01,08,47,4.60
2019,10,01,08,48,4.60
2019,10,01,08,49,4.70
2019,10,01,08,50,4.70
2019,10,01,08,51,4.70
2019,10,01,08,52,4.70
2019,10,01,08,53,4.80
2019,10,01,08,54,4.80
2019,10,01,08,55,4.80
2019,10,01,08,56,4.90
2019,10,01,08,57,4.90
2019,10,01,08,58,4.90
2019,10,01,08,59,5.00
2019,10,01,09,00,5.00
2019,10,01,09,01,5.00
2019,10,01,09,02,5.00
2019,10,01,09,03,5.00
2019,10,01,09,04,5.10
2019,10,01,09,05,5.10
2019,10,01,09,06,5.10
2019,10,01,09,07,5.10
2019,10,01,09,08,5.10
2019,10,01,09,09,5.20
2019,10,01,09,10,5.20
2019,10,01,09,11,5.20
2019,10,01,09,12,5.30
2019,10,01,09,13,5.30
2019,10,01,09,14,5.30
2019,10,01,09,15,5.40
2019,10,01,09,16,5.40
2019,10,01,09,17,5.40
2019,10,01,09,18,5.50
2019,10,01,09,19,5.50
2019,10,01,09,20,5.60
2019,10,01,09,21,5.60
2019,10,01,09,22,5.70
2019,10,01,09,23,5.70
2019,10,01,09,24,5.80
2019,10,01,09,25,5.80
2019,10,01,09,26,5.90
2019,10,01,09,27,5.90
2019,10,01,09,28,6.00
2019,10,01,09,29,6.00
2019,10,01,09,30,6.10
2019,10,01,09,31,6.10
2019,10,01,09,32,6.20
2019,10,01,09,33,6.20
2019,10,01,09,34,6.30
2019,10,01,09,35,6.30
2019,10,01,09,36,6.40
2019,10,01,09,37,6.40
2019,10,01,09,38,6.50
2019,10,01,09,39,6.50
2019,10,01,09,40,6.60
2019,10,01,09,41,6.60
2019,10,01,09,42,6.60
2019,10,01,09,43,6.70
2019,10,01,09,44,6.70
2019,10,01,09,45,6.80
2019,10,01,09,46,6.80
2019,10,01,09,47,6.80
2019,10,01,09,48,6.90
2019,10,01,09,49,6.90
2019,10,01,09,50,7.00
2019,10,01,09,51,7.00
2019,10,01,09,52,7.10
2019,10,01,09,53,7.10
2019,10,01,09,54,7.20
2019,10,01,09,55,7.20
2019,10,01,09,56,7.30
2019,10,01,09,57,7.30
2019,10,01,09,58,7.40
2019,10,01,09,59,7.40
2019,10,01,10,00,7.50
2019,10,01,10,01,7.50
2019,10,01,10,02,7.60
2019,10,01,10,03,7.60
2019,10,01,10,04,7.70
2019,10,01,10,05,7.80
2019,10,01,10,06,7.80
2019,10,01,10,07,7.90
2019,10,01,10,08,8.00
2019,10,01,10,09,8.10
2019,10,01,10,10,8.10
2019,10,01,10,11,8.20
2019,10,01,10,12,8.30
2019,10,01,10,13,8.30
2019,10,01,10,14,8.40
2019,10,01,10,15,8.40
2019,10,01,10,16,8.50
2019,10,01,10,17,8.60
2019,10,01,10,18,8.60
2019,10,01,10,19,8.70
2019,10,01,10,20,8.70
2019,10,01,10,21,8.80
2019,10,01,10,22,8.80
2019,10,01,10,23,8.90
2019,10,01,10,24,9.00
2019,10,01,10,25,9.00
2019,10,01,10,26,9.10
2019,10,01,10,27,9.10
2019,10,01,10,28,9.20
2019,10,01,10,29,9.20
2019,10,01,10,30,9.20
2019,10,01,10,31,9.30
2019,10,01,10,32,9.40
2019,10,01,10,33,9.40
2019,10,01,10,34,9.50
2019,10,01,10,35,9.60
2019,10,01,10,36,9.60
2019,10,01,10,37,9.70
2019,10,01,10,38,9.70
2019,10,01,10,39,9.80
2019,10,01,10,40,9.80
2019,10,01,10,41,9.90
2019,10,01,10,42,9.90
2019,10,01,10,43,10.00
2019,10,01,10,44,10.00
2019,10,01,10,45,10.10
2019,10,01,10,46,10.10
2019,10,01,10,47,10.20
2019,10,01,10,48,10.20
2019,10,01,10,49,10.30
2019,10,01,10,50,10.30
2019,10,01,10,51,10.30
2019,10,01,10,52,10.30
2019,10,01,10,53,10.30
2019,10,01,10,54,10.30
2019,10,01,10,55,10.30
2019,10,01,10,56,10.30
2019,10,01,10,57,10.30
2019,10,01,10,58,10.30
2019,10,01,10,59,10.30
2019,10,01,11,00,10.30
2019,10,01,11,01,10.30
2019,10,01,11,02,10.30
2019,10,01,11,03,10.40
2019,10,01,11,04,10.40
2019,10,01,11,05,10.40
2019,10,01,11,06,10.50
2019,10,01,11,07,10.50
2019,10,01,11,08,10.60
2019,10,01,11,09,10.60
2019,10,01,11,10,10.60
2019,10,01,11,11,10.70
2019,10,01,11,12,10.70
2019,10,01,11,13,10.70
2019,10,01,11,14,10.70
2019,10,01,11,15,10.70
2019,10,01,11,16,10.70
2019,10,01,11,17,10.70
2019,10,01,11,18,10.70
2019,10,01,11,19,10.70
2019,10,01,11,20,10.70
2019,10,01,11,21,10.70
2019,10,01,11,22,10.70
2019,10,01,11,23,10.70
2019,10,01,11,24,10.70
2019,10,01,11,25,10.70
2019,10,01,11,26,10.70
2019,10,01,11,27,10.70
2019,10,01,11,28,10.70
2019,10,01,11,29,10.70
2019,10,01,11,30,10.70
2019,10,01,11,31,10.70
2019,10,01,11,32,10.80
2019,10,01,11,33,10.80
2019,10,01,11,34,10.80
2019,10,01,11,35,10.80
2019,10,01,11,36,10.90
2019,10,01,11,37,10.90
2019,10,01,11,38,11.00
2019,10,01,11,39,11.10
2019,10,01,11,40,11.10
2019,10,01,11,41,11.20
2019,10,01,11,42,11.30
2019,10,01,11,43,11.30
2019,10,01,11,44,11.40
2019,10,01,11,45,11.50
2019,10,01,11,46,11.50
2019,10,01,11,47,11.60
2019,10,01,11,48,11.60
2019,10,01,11,49,11.60
2019,10,01,11,50,11.70
2019,10,01,11,51,11.70
2019,10,01,11,52,11.70
2019,10,01,11,53,11.80
2019,10,01,11,54,11.80
2019,10,01,11,55,11.80
2019,10,01,11,56,11.80
2019,10,01,11,57,11.80
2019,10,01,11,58,11.80
2019,10,01,11,59,11.80
2019,10,01,12,00,11.80
2019,10,01,12,01,11.80
2019,10,01,12,02,11.90
2019,10,01,12,03,11.90
2019,10,01,12,04,12.00
2019,10,01,12,05,12.00
2019,10,01,12,06,12.10
2019,10,01,12,07,12.10
2019,10,01,12,08,12.20
2019,10,01,12,09,12.20
2019,10,01,12,10,12.20
2019,10,01,12,11,12.20
2019,10,01,12,12,12.20
2019,10,01,12,13,12.20
2019,10,01,12,14,12.20
2019,10,01,12,15,12.20
2019,10,01,12,16,12.20
2019,10,01,12,17,12.20
2019,10,01,12,18,12.20
2019,10,01,12,19,12.20
2019,10,01,12,20,12.20
2019,10,01,12,21,12.20
2019,10,01,12,22,12.20
2019,10,01,12,23,12.20
2019,10,01,12,24,12.20
2019,10,01,12,25,12.10
2019,10,01,12,26,12.10
2019,10,01,12,27,12.10
2019,10,01,12,28,12.10
2019,10,01,12,29,12.00
2019,10,01,12,30,12.00
2019,10,01,12,31,12.10
2019,10,01,12,32,12.10
2019,10,01,12,33,12.10
2019,10,01,12,34,12.10
2019,10,01,12,35,12.10
2019,10,01,12,36,12.10
2019,10,01,12,37,12.20
2019,10,01,12,38,12.20
2019,10,01,12,39,12.20
2019,10,01,12,40,12.20
2019,10,01,12,41,12.30
2019,10,01,12,42,12.30
2019,10,01,12,43,12.40
2019,10,01,12,44,12.50
2019,10,01,12,45,12.60
2019,10,01,12,46,12.70
2019,10,01,12,47,12.80
2019,10,01,12,48,12.90
2019,10,01,12,49,12.90
2019,10,01,12,50,12.90
2019,10,01,12,51,12.90
2019,10,01,12,52,12.90
2019,10,01,12,53,13.00
2019,10,01,12,54,13.00
2019,10,01,12,55,13.00
2019,10,01,12,56,13.10
2019,10,01,12,57,13.10
2019,10,01,12,58,13.10
2019,10,01,12,59,13.10
2019,10,01,13,00,13.10
2019,10,01,13,01,13.10
2019,10,01,13,02,13.00
2019,10,01,13,03,12.90
2019,10,01,13,04,12.80
2019,10,01,13,05,12.80
2019,10,01,13,06,12.70
2019,10,01,13,07,12.70
2019,10,01,13,08,12.60
2019,10,01,13,09,12.60
2019,10,01,13,10,12.60
2019,10,01,13,11,12.60
2019,10,01,13,12,12.60
2019,10,01,13,13,12.60
2019,10,01,13,14,12.60
2019,10,01,13,15,12.50
2019,10,01,13,16,12.50
2019,10,01,13,17,12.40
2019,10,01,13,18,12.30
2019,10,01,13,19,12.30
2019,10,01,13,20,12.30
2019,10,01,13,21,12.30
2019,10,01,13,22,12.30
2019,10,01,13,23,12.20
2019,10,01,13,24,12.10
2019,10,01,13,25,12.10
2019,10,01,13,26,12.10
2019,10,01,13,27,12.00
2019,10,01,13,28,12.00
2019,10,01,13,29,12.00
2019,10,01,13,30,12.00
2019,10,01,13,31,12.00
2019,10,01,13,32,12.00
2019,10,01,13,33,12.00
2019,10,01,13,34,12.10
2019,10,01,13,35,12.10
2019,10,01,13,36,12.20
2019,10,01,13,37,12.30
2019,10,01,13,38,12.40
2019,10,01,13,39,12.50
2019,10,01,13,40,12.60
2019,10,01,13,41,12.70
2019,10,01,13,42,12.80
2019,10,01,13,43,12.90
2019,10,01,13,44,13.00
2019,10,01,13,45,13.10
2019,10,01,13,46,13.20
2019,10,01,13,47,13.30
2019,10,01,13,48,13.30
2019,10,01,13,49,13.40
2019,10,01,13,50,13.50
2019,10,01,13,51,13.50
2019,10,01,13,52,13.60
2019,10,01,13,53,13.60
2019,10,01,13,54,13.60
2019,10,01,13,55,13.60
2019,10,01,13,56,13.60
2019,10,01,13,57,13.60
2019,10,01,13,58,13.60
2019,10,01,13,59,13.60
2019,10,01,14,00,13.60
2019,10,01,14,01,13.60
2019,10,01,14,02,13.60
2019,10,01,14,03,13.60
2019,10,01,14,04,13.70
2019,10,01,14,05,13.70
2019,10,01,14,06,13.70
2019,10,01,14,07,13.70
2019,10,01,14,08,13.70
2019,10,01,14,09,13.60
2019,10,01,14,10,13.60
2019,10,01,14,11,13.60
2019,10,01,14,12,13.60
2019,10,01,14,13,13.60
2019,10,01,14,14,13.60
2019,10,01,14,15,13.60
2019,10,01,14,16,13.70
2019,10,01,14,17,13.70
2019,10,01,14,18,13.80
2019,10,01,14,19,13.80
2019,10,01,14,20,13.90
2019,10,01,14,21,13.90
2019,10,01,14,22,14.00
2019,10,01,14,23,14.00
2019,10,01,14,24,14.00
2019,10,01,14,25,14.10
2019,10,01,14,26,14.10
2019,10,01,14,27,14.10
2019,10,01,14,28,14.10
2019,10,01,14,29,14.20
2019,10,01,14,30,14.30
2019,10,01,14,31,14.30
2019,10,01,14,32,14.40
2019,10,01,14,33,14.50
2019,10,01,14,34,14.50
2019,10,01,14,35,14.50
2019,10,01,14,36,14.60
2019,10,01,14,37,14.60
2019,10,01,14,38,14.60
2019,10,01,14,39,14.60
2019,10,01,14,40,14.60
2019,10,01,14,41,14.70
2019,10,01,14,42,14.70
2019,10,01,14,43,14.70
2019,10,01,14,44,14.70
2019,10,01,14,45,14.70
2019,10,01,14,46,14.70
2019,10,01,14,47,14.70
2019,10,01,14,48,14.70
2019,10,01,14,49,14.70
2019,10,01,14,50,14.70
2019,10,01,14,51,14.70
2019,10,01,14,52,14.70
2019,10,01,14,53,14.70
2019,10,01,14,54,14.70
2019,10,01,14,55,14.70
2019,10,01,14,56,14.80
2019,10,01,14,57,14.80
2019,10,01,14,58,14.80
2019,10,01,14,59,14.70
2019,10,01,15,00,14.70
2019,10,01,15,01,14.60
2019,10,01,15,02,14.60
2019,10,01,15,03,14.60
2019,10,01,15,04,14.60
2019,10,01,15,05,14.60
2019,10,01,15,06,14.50
2019,10,01,15,07,14.40
2019,10,01,15,08,14.30
2019,10,01,15,09,14.30
2019,10,01,15,10,14.20
2019,10,01,15,11,14.20
2019,10,01,15,12,14.20
2019,10,01,15,13,14.20
2019,10,01,15,14,14.20
2019,10,01,15,15,14.10
2019,10,01,15,16,14.10
2019,10,01,15,17,14.10
2019,10,01,15,18,14.20
2019,10,01,15,19,14.20
2019,10,01,15,20,14.20
2019,10,01,15,21,14.30
2019,10,01,15,22,14.30
2019,10,01,15,23,14.30
2019,10,01,15,24,14.30
2019,10,01,15,25,14.30
2019,10,01,15,26,14.40
2019,10,01,15,27,14.40
2019,10,01,15,28,14.40
2019,10,01,15,29,14.40
2019,10,01,15,30,14.40
2019,10,01,15,31,14.40
2019,10,01,15,32,14.40
2019,10,01,15,33,14.40
2019,10,01,15,34,14.40
2019,10,01,15,35,14.40
2019,10,01,15,36,14.40
2019,10,01,15,37,14.40
2019,10,01,15,38,14.50
2019,10,01,15,39,14.60
2019,10,01,15,40,14.60
2019,10,01,15,41,14.60
2019,10,01,15,42,14.60
2019,10,01,15,43,14.60
2019,10,01,15,44,14.70
2019,10,01,15,45,14.60
2019,10,01,15,46,14.60
2019,10,01,15,47,14.50
2019,10,01,15,48,14.40
2019,10,01,15,49,14.40
2019,10,01,15,50,14.40
2019,10,01,15,51,14.40
2019,10,01,15,52,14.40
2019,10,01,15,53,14.40
2019,10,01,15,54,14.40
2019,10,01,15,55,14.40
2019,10,01,15,56,14.40
2019,10,01,15,57,14.30
2019,10,01,15,58,14.30
2019,10,01,15,59,14.30
2019,10,01,16,00,14.20
2019,10,01,16,01,14.20
2019,10,01,16,02,14.10
2019,10,01,16,03,14.10
2019,10,01,16,04,14.10
2019,10,01,16,05,14.10
2019,10,01,16,06,14.10
2019,10,01,16,07,14.10
2019,10,01,16,08,14.10
2019,10,01,16,09,14.20
2019,10,01,16,10,14.20
2019,10,01,16,11,14.20
2019,10,01,16,12,14.30
2019,10,01,16,13,14.30
2019,10,01,16,14,14.30
2019,10,01,16,15,14.30
2019,10,01,16,16,14.30
2019,10,01,16,17,14.40
2019,10,01,16,18,14.40
2019,10,01,16,19,14.40
2019,10,01,16,20,14.50
2019,10,01,16,21,14.50
2019,10,01,16,22,14.60
2019,10,01,16,23,14.60
2019,10,01,16,24,14.60
2019,10,01,16,25,14.60
2019,10,01,16,26,14.60
2019,10,01,16,27,14.60
2019,10,01,16,28,14.60
2019,10,01,16,29,14.70
2019,10,01,16,30,14.70
2019,10,01,16,31,14.70
2019,10,01,16,32,14.70
2019,10,01,16,33,14.70
2019,10,01,16,34,14.70
2019,10,01,16,35,14.70
2019,10,01,16,36,14.70
2019,10,01,16,37,14.70
2019,10,01,16,38,14.70
2019,10,01,16,39,14.70
2019,10,01,16,40,14.70
2019,10,01,16,41,14.70
2019,10,01,16,42,14.70
2019,10,01,16,43,14.70
2019,10,01,16,44,14.70
2019,10,01,16,45,14.70
2019,10,01,16,46,14.70
2019,10,01,16,47,14.70
2019,10,01,16,48,14.70
2019,10,01,16,49,14.70
2019,10,01,16,50,14.70
2019,10,01,16,51,14.70
2019,10,01,16,52,14.70
2019,10,01,16,53,14.80
2019,10,01,16,54,14.80
2019,10,01,16,55,14.70
2019,10,01,16,56,14.70
2019,10,01,16,57,14.70
2019,10,01,16,58,14.70
2019,10,01,16,59,14.70
2019,10,01,17,00,14.70
2019,10,01,17,01,14.70
2019,10,01,17,02,14.70
2019,10,01,17,03,14.70
2019,10,01,17,04,14.70
2019,10,01,17,05,14.70
2019,10,01,17,06,14.70
2019,10,01,17,07,14.70
2019,10,01,17,08,14.70
2019,10,01,17,09,14.70
2019,10,01,17,10,14.70
2019,10,01,17,11,14.70
2019,10,01,17,12,14.70
2019,10,01,17,13,14.70
2019,10,01,17,14,14.70
2019,10,01,17,15,14.60
2019,10,01,17,16,14.60
2019,10,01,17,17,14.60
2019,10,01,17,18,14.60
2019,10,01,17,19,14.50
2019,10,01,17,20,14.50
2019,10,01,17,21,14.50
2019,10,01,17,22,14.50
2019,10,01,17,23,14.50
2019,10,01,17,24,14.50
2019,10,01,17,25,14.40
2019,10,01,17,26,14.40
2019,10,01,17,27,14.40
2019,10,01,17,28,14.40
2019,10,01,17,29,14.30
2019,10,01,17,30,14.30
2019,10,01,17,31,14.30
2019,10,01,17,32,14.20
2019,10,01,17,33,14.20
2019,10,01,17,34,14.10
2019,10,01,17,35,14.00
2019,10,01,17,36,14.00
2019,10,01,17,37,13.90
2019,10,01,17,38,13.90
2019,10,01,17,39,13.90
2019,10,01,17,40,13.90
2019,10,01,17,41,13.80
2019,10,01,17,42,13.80
2019,10,01,17,43,13.70
2019,10,01,17,44,13.70
2019,10,01,17,45,13.70
2019,10,01,17,46,13.60
2019,10,01,17,47,13.50